EHI
4 5 7 8 8 6 5 5 5 4 3 3 3 3 3 4 3 1 1 3 4 2 1 1 0 0 0 0 0 0 0 0 0 0 0 0 0 0 0 0 0 0 0
4 5 7 10 11 9 7 7 6 4 3 3 4 4 3 3 2 1 1 3 4 2 1 2 1 0 0 0 0 0 0 0 0 0 0 0 0 0 0 0 0 0 0
6 7 9 11 13 12 9 6 4 3 3 4 5 6 4 2 1 1 1 2 2 2 3 3 2 1 0 0 0 0 0 0 1 1 1 1 1 0 0 0 0 0 0
9 9 11 12 13 12 9 5 3 4 4 4 6 7 5 2 2 2 1 1 2 2 3 3 2 1 0 0 0 0 0 0 1 2 2 2 2 1 1 1 0 0 0
11 13 15 15 15 12 8 5 4 5 5 5 7 8 5 2 1 2 2 2 2 2 2 2 2 1 0 0 0 0 0 0 1 2 3 3 3 3 2 2 1 0 0
11 15 20 22 20 14 9 6 5 5 5 6 8 7 4 2 2 2 1 1 1 1 1 1 1 0 0 0 0 0 0 0 0 1 1 3 3 3 3 3 1 1 0
11 17 25 28 24 18 12 8 6 5 5 6 6 5 3 2 2 2 2 1 0 0 1 1 0 0 0 0 0 0 0 0 0 0 1 3 3 3 3 3 3 2 1
13 19 27 28 24 18 15 12 9 5 5 5 4 3 1 1 1 2 3 3 1 0 1 1 0 0 0 0 0 1 1 0 0 0 2 3 3 3 3 3 3 3 3
15 21 25 25 22 17 14 14 11 7 5 4 3 1 0 0 0 1 3 4 3 1 1 1 0 0 0 0 1 1 1 0 0 0 1 2 3 3 3 3 3 3 3
15 20 22 21 18 15 12 12 12 9 7 6 4 1 0 0 0 1 2 3 3 3 2 2 1 1 1 1 1 1 1 1 0 0 0 1 1 2 2 2 2 2 2
13 15 16 16 13 12 11 12 13 12 10 8 7 3 0 0 0 1 1 2 3 3 3 3 2 2 2 2 2 2 2 2 2 1 1 0 0 1 1 1 1 1 1
11 11 12 13 11 10 11 14 15 14 11 9 8 5 2 0 0 0 1 2 2 2 3 2 1 1 2 3 4 4 5 5 4 3 2 1 0 1 1 1 0 0 0
9 10 12 13 12 11 12 14 14 13 10 8 7 6 3 1 0 1 2 2 2 1 2 2 1 1 2 3 3 5 7 7 5 4 3 1 1 2 2 2 1 0 0
8 9 11 13 13 11 12 14 13 11 8 7 6 6 5 2 1 2 3 2 1 1 2 3 2 2 1 1 2 5 8 8 5 4 3 2 2 3 3 3 1 0 0
9 9 10 12 12 10 11 13 12 9 7 6 7 8 7 4 3 3 3 3 2 2 3 3 3 2 2 1 2 5 8 8 6 4 2 2 3 3 3 3 2 0 0
8 8 8 11 11 9 10 13 12 9 7 7 8 10 9 6 4 3 3 3 3 3 3 3 3 3 2 2 3 6 8 7 6 4 3 2 3 3 3 3 1 0 0
8 8 8 10 11 9 9 12 11 10 9 9 10 11 10 8 5 4 4 5 5 5 4 4 4 3 3 2 3 4 5 6 7 6 4 3 3 3 3 3 1 1 1
8 8 9 11 10 8 8 10 10 10 10 10 11 11 9 8 8 7 6 7 7 6 5 5 5 4 3 1 1 2 3 5 6 6 5 4 3 3 3 3 3 2 2
7 8 9 9 7 6 6 8 9 9 10 10 11 10 8 8 8 9 8 8 9 7 5 5 5 4 3 1 0 1 4 6 6 6 6 4 3 4 4 4 3 3 3
7 8 9 8 6 4 4 6 7 8 9 9 9 9 7 7 7 8 9 9 9 7 6 4 4 3 3 2 1 2 5 6 6 6 6 4 4 4 4 4 4 3 3
11 11 11 10 8 4 2 3 5 7 8 8 7 6 5 5 5 6 8 8 8 7 6 4 3 3 3 2 1 1 4 6 6 6 6 5 3 2 2 3 3 3 2
12 13 13 11 9 5 3 2 4 5 7 6 5 4 4 4 4 4 6 6 6 6 5 4 3 3 2 1 0 1 3 5 5 5 5 4 2 1 0 1 1 1 1
9 11 12 10 8 6 4 4 4 5 6 5 4 4 4 5 5 5 5 5 5 5 5 4 4 3 2 2 1 0 1 2 3 3 2 1 0 0 0 0 0 0 0
7 8 9 8 7 7 6 6 6 6 5 4 4 5 5 6 7 7 6 6 6 6 5 4 4 4 3 3 2 0 0 1 1 1 0 0 0 0 0 0 0 0 0
5 5 6 7 7 7 7 6 6 5 4 3 4 5 6 6 7 7 5 5 5 4 3 3 3 2 2 2 1 0 0 1 1 0 0 0 0 0 0 0 0 0 0
4 4 5 6 7 7 6 6 5 4 4 3 4 6 6 6 6 5 3 2 2 2 1 1 1 0 1 1 1 0 0 1 1 0 0 0 0 0 0 0 0 0 0
Wind_Speed
6 4 5 5 5 4 5 5 5 4 3 2 2 1 1 0 0 0 1 1 1 1 1 1 1 1 1 0 1 0 1 1 1 1 1 2 1 1 1 1 0 1 1
4 5 5 6 6 6 6 5 5 4 3 2 2 2 2 1 1 0 1 0 1 1 2 1 1 1 1 1 1 1 1 1 2 1 1 2 2 2 1 1 1 1 1
8 7 7 7 7 7 7 7 6 5 4 3 2 2 2 2 1 1 1 1 0 1 1 1 1 1 0 0 1 0 1 0 1 1 2 1 1 2 2 1 1 1 1
8 8 8 7 7 7 6 6 5 5 4 4 4 3 3 2 1 1 0 1 1 1 1 1 1 0 0 0 1 1 0 1 0 0 0 1 1 1 2 2 1 1 1
9 9 9 8 7 6 7 6 6 5 4 4 5 4 3 2 1 1 1 1 1 1 1 1 1 0 0 0 1 1 0 1 1 1 1 1 0 1 1 2 2 2 2
7 7 6 6 5 5 5 6 7 5 5 5 4 5 4 3 3 2 1 0 0 1 1 0 0 0 0 1 1 0 0 0 0 0 0 1 1 1 1 2 2 2 2
6 6 7 7 6 7 7 6 7 6 5 5 4 4 4 4 4 3 2 1 0 0 1 0 0 1 1 1 0 0 0 0 0 1 1 1 1 1 2 2 2 2 2
5 6 7 7 7 7 7 7 7 6 6 5 5 4 4 3 2 3 2 2 2 2 1 1 1 1 1 1 0 0 1 0 0 1 1 1 1 1 2 2 2 1 2
5 5 5 6 6 6 7 8 7 6 5 5 5 4 4 3 3 2 2 2 1 1 1 1 1 1 1 1 1 0 1 0 1 1 1 1 2 1 2 2 2 2 2
3 5 6 6 6 5 5 6 6 6 5 4 4 4 4 4 3 2 2 2 1 1 1 1 1 1 1 1 1 1 1 1 1 1 1 2 2 1 1 2 2 3 3
4 5 5 5 5 5 5 5 5 5 4 5 4 3 3 3 3 3 3 3 2 2 2 2 2 2 2 1 1 2 1 1 1 1 2 2 2 2 1 2 2 2 3
3 4 5 5 5 5 5 5 5 5 5 4 4 4 3 3 3 3 3 3 2 2 2 2 2 2 2 2 2 2 2 2 2 2 2 3 2 2 2 2 2 2 3
2 3 4 4 5 5 4 4 4 5 4 4 4 3 3 3 3 3 3 3 3 2 2 2 2 3 3 3 3 3 2 2 2 2 2 3 2 3 2 2 2 2 2
2 3 3 3 4 4 4 4 4 4 4 4 4 4 4 4 4 3 3 2 2 2 2 2 2 3 3 3 2 2 2 2 2 2 2 3 3 3 3 2 3 2 2
1 2 2 2 2 3 3 3 3 3 4 4 4 4 4 3 3 2 2 2 2 2 2 2 2 2 2 2 2 2 2 2 2 2 2 3 3 3 2 2 2 2 2
2 2 2 3 3 3 3 3 3 4 4 4 4 3 3 3 3 2 2 2 1 1 1 2 2 2 2 2 2 2 2 2 2 2 2 3 3 3 4 4 3 3 3
2 3 3 3 3 3 3 4 3 3 3 3 3 2 2 2 2 2 2 2 2 1 1 2 2 2 3 3 2 2 2 2 2 2 2 3 3 3 3 4 4 4 4
1 2 2 2 1 2 2 2 2 2 2 2 2 2 2 3 3 2 2 2 2 1 2 2 2 2 3 3 2 2 1 2 2 3 3 3 4 3 2 2 3 3 4
2 2 2 2 2 2 2 3 3 2 2 2 2 3 3 3 3 3 3 2 2 2 2 2 2 2 3 3 2 1 1 2 3 3 3 3 4 5 3 2 3 4 4
1 1 2 2 3 2 3 3 2 2 2 3 3 3 3 3 3 3 3 2 2 2 2 2 2 2 3 3 2 1 1 2 2 3 3 4 4 5 3 3 3 4 5
1 2 3 2 1 2 3 3 2 2 2 1 1 1 2 2 2 2 1 1 1 1 1 1 2 2 3 3 2 2 1 2 2 2 3 3 5 5 5 4 4 5 5
2 2 3 2 1 2 3 2 1 1 0 1 1 1 0 1 1 1 1 1 1 1 1 1 2 2 2 3 3 2 2 2 2 3 3 3 5 5 4 3 4 4 3
2 2 3 3 1 1 2 2 1 0 1 2 1 0 0 0 1 2 2 1 1 1 1 1 2 3 2 3 3 3 3 3 2 3 4 5 4 4 3 3 3 2 2
1 2 3 3 1 0 0 1 1 1 2 1 1 1 1 1 0 1 2 2 2 2 2 2 3 3 2 2 2 2 2 2 2 3 3 3 3 3 3 3 2 1 2
1 2 2 2 2 1 0 0 1 2 1 1 1 1 1 1 1 1 2 3 4 4 4 3 3 3 3 4 4 2 2 2 2 2 1 2 2 2 3 3 3 2 2
1 1 1 1 1 1 1 1 1 2 2 1 1 1 1 1 1 1 1 2 2 3 4 4 4 3 5 4 3 3 3 3 2 0 1 2 2 2 3 3 3 3 3
Wind_Direction
216 195 190 180 169 169 172 174 171 171 155 148 149 146 168 159 66 96 155 161 147 134 116 94 86 82 85 29 26 66 42 33 43 62 18 359 8 5 316 300 296 284 266
199 195 190 184 180 183 184 179 179 172 172 173 157 145 140 137 138 58 73 123 148 147 140 128 128 114 81 33 23 60 66 32 54 93 78 5 355 347 329 315 277 300 319
202 202 198 193 184 188 187 186 181 169 168 151 116 98 82 58 38 25 16 348 87 111 115 139 137 128 138 352 352 67 129 98 37 73 124 128 262 316 330 326 329 332 274
203 201 199 196 192 193 184 174 167 158 159 149 146 149 154 174 210 204 233 6 25 51 96 129 133 130 72 349 331 73 142 143 141 66 83 148 168 177 314 327 328 311 289
204 201 199 195 191 182 172 166 152 149 154 155 160 158 161 176 143 103 82 39 19 18 31 115 139 147 220 330 7 34 71 165 185 190 166 152 123 163 200 289 314 324 295
203 197 188 174 173 168 161 154 146 149 157 158 162 164 164 157 138 135 146 166 345 355 356 63 119 189 243 287 305 359 29 34 219 262 190 173 171 195 196 244 280 294 295
192 184 175 175 176 173 167 157 153 156 159 159 168 172 174 168 167 170 175 175 202 273 293 294 265 261 260 268 292 36 342 313 284 257 258 239 231 200 187 211 260 281 296
188 184 179 178 179 177 165 159 161 162 162 165 173 173 170 172 174 175 178 187 207 224 248 244 253 276 289 298 262 211 248 145 249 265 256 256 253 221 201 201 207 271 291
184 172 163 165 170 171 170 168 167 169 174 177 172 167 167 170 175 174 174 190 210 213 218 227 264 278 279 265 212 205 243 211 237 259 262 266 270 243 230 219 205 204 253
172 163 162 164 165 165 161 155 162 171 171 174 183 178 173 171 171 162 175 192 204 214 209 232 253 272 276 256 214 227 239 203 244 244 256 267 273 268 246 230 221 213 217
175 168 162 158 151 147 151 151 156 161 173 177 175 171 171 166 169 183 196 199 206 204 208 218 230 245 257 250 218 226 220 222 257 274 267 277 281 275 274 244 224 222 216
159 153 151 146 147 155 155 157 156 164 178 178 169 174 171 166 182 201 208 203 208 215 216 217 224 236 244 239 225 233 226 223 246 264 269 280 281 279 276 259 246 237 223
122 130 136 151 155 160 158 161 166 167 160 157 160 167 178 188 199 208 211 209 212 224 229 223 232 242 243 237 234 228 229 231 240 250 257 270 271 276 273 263 257 252 244
111 116 130 153 160 161 162 168 175 169 156 152 161 178 199 207 209 206 208 216 221 224 235 240 246 248 242 237 238 234 230 236 245 253 259 263 256 259 263 258 256 255 257
100 127 141 147 151 155 166 173 176 171 165 165 176 189 197 196 192 193 206 212 221 232 240 243 256 263 246 242 239 233 232 237 257 273 274 270 277 282 275 275 261 250 252
166 159 158 159 164 175 182 177 180 181 172 173 189 192 181 184 193 192 194 209 223 235 242 255 257 267 273 283 248 221 221 228 243 270 289 288 288 299 301 297 284 259 245
185 178 184 191 181 185 188 193 189 171 173 181 188 187 184 186 203 200 191 219 231 234 253 273 275 278 288 306 295 253 212 231 240 251 275 293 304 300 289 298 306 295 281
205 195 177 186 179 163 162 160 146 153 169 184 195 187 183 193 196 189 193 233 241 234 243 256 269 275 291 309 296 275 213 244 257 255 253 266 285 289 287 287 302 296 286
183 179 161 145 127 125 134 128 129 150 170 194 208 208 197 194 193 196 200 214 219 242 254 260 262 265 285 301 286 238 228 253 271 275 273 269 276 292 296 284 293 301 301
99 110 95 90 94 107 118 117 137 162 198 216 216 209 196 191 194 203 209 216 211 230 247 267 273 265 277 293 283 224 215 251 278 294 293 285 282 289 283 263 268 282 290
113 110 103 95 104 118 117 120 136 209 241 229 167 171 183 190 195 203 216 207 200 213 252 289 305 299 292 301 287 238 209 236 261 277 288 290 294 287 278 263 253 262 273
98 109 106 87 70 110 124 123 183 244 90 101 106 119 209 218 172 170 201 183 175 199 248 275 297 298 295 296 284 261 238 235 240 260 273 283 296 294 290 279 277 282 289
122 123 120 104 72 96 131 141 234 110 107 109 125 161 205 267 187 185 188 187 200 212 236 248 267 286 295 301 300 291 283 268 255 272 280 295 301 298 292 294 297 299 295
122 121 116 118 128 294 156 176 185 136 123 133 166 181 185 235 266 228 207 204 210 220 228 242 254 271 283 285 291 289 289 293 285 293 303 309 312 313 311 316 315 302 280
130 123 134 154 185 198 261 271 166 137 134 158 185 201 215 224 240 251 241 230 224 217 218 228 231 238 265 268 253 244 267 270 274 300 315 327 333 333 331 327 323 323 312
145 138 153 172 202 179 227 262 214 165 159 189 222 233 238 237 233 250 304 307 265 248 233 229 226 242 245 261 265 254 265 277 267 311 293 292 288 287 296 301 306 308 304